SCP
-0 -0 -0 -1 -1 -0 -0 -0 -0 -1 -0 -0 -0 -0 -0 -0 0 0 0 0 0 0 0 -0 -0 -0 -0 -0 -0 -0 -0 -0 0
0 -0 -0 -1 -1 -1 -0 -0 -1 -1 -0 -0 -0 -0 -0 -0 -0 -0 -0 -0 -0 -0 0 0 -0 -0 -0 -0 -0 -0 -0 0 0
-0 0 -0 -2 -1 -1 -0 -0 -0 -0 -0 -0 -0 -0 -0 -0 -0 -0 0 0 0 0 0 0 0 0 -0 -0 -0 -0 -0 0 0
0 0 0 -2 -1 -1 -1 -0 -0 -0 -0 -0 -0 -0 -0 -0 -0 -0 -0 0 0 0 0 0 0 0 0 -0 -0 0 0 0 0
0 0 0 -1 -1 -1 -0 -0 -0 -0 -0 -0 -0 -0 -0 -0 -0 -0 -0 -0 -0 -0 -0 -0 0 0 0 0 0 0 0 0 0
0 0 1 1 -0 -0 -1 -0 -0 -0 0 0 0 -0 -0 -0 -0 -0 -0 -0 -0 -0 -0 -0 -0 -0 -1 -1 -1 -0 -0 0 0
0 0 1 1 1 -0 -0 -0 -0 -0 0 0 -0 -0 -1 -1 -1 -1 -1 -1 -1 -1 -1 -0 -0 -0 -1 -2 -2 -2 -1 -0 0
0 0 0 2 1 0 -0 -0 0 0 -0 -0 -0 -1 -1 -1 -1 -1 -1 -1 -1 -1 -1 -1 -1 -1 -1 -1 -2 -2 -3 -2 -2
0 0 1 1 2 1 1 -0 0 1 1 0 -0 -0 -1 -0 -1 -1 -1 -1 -1 -1 -2 -1 -1 -1 -1 -1 -1 -3 -3 -3 -2
0 0 0 0 0 1 2 -0 -0 1 1 1 0 -0 -0 -1 -1 -2 -2 -1 -1 -2 -2 -2 -2 -2 -1 -1 -2 -2 -2 -2 -2
0 0 0 0 0 0 0 1 1 1 2 2 1 0 0 -0 -0 -1 -1 -1 -2 -1 -1 -1 -1 -2 -2 -2 -2 -1 -1 -1 -2
1 1 1 1 1 1 0 0 0 1 1 2 3 1 1 1 1 0 -0 -2 -2 -1 -1 -0 -0 -0 -1 -2 -3 -1 -1 0 0
0 0 1 2 1 1 1 0 0 1 2 1 1 1 1 3 2 2 1 0 -1 1 1 0 1 1 1 -0 -1 0 0 0 2
0 0 0 1 2 2 2 1 0 1 1 2 2 2 2 2 2 2 3 4 4 4 4 4 3 2 2 1 1 1 1 0 2
0 0 0 0 0 1 1 1 1 0 1 1 2 1 2 3 4 3 6 6 6 6 6 6 5 4 3 2 2 2 2 0 0
0 0 0 0 0 1 1 2 1 0 1 1 1 2 2 3 3 4 5 6 5 6 5 5 6 5 4 4 3 3 2 1 0
0 0 0 0 0 2 4 3 3 3 2 1 1 2 2 3 5 7 6 6 5 4 5 5 6 5 4 4 4 3 3 2 0
0 0 0 0 0 1 5 3 3 2 2 1 2 2 2 3 5 6 7 5 4 5 5 5 5 5 5 4 3 3 0 1 3
0 0 0 0 0 1 4 1 1 1 1 1 2 2 3 4 5 6 8 3 0 0 0 0 0 0 4 0 0 0 0 0 0
0 0 0 0 0 1 1 2 1 1 1 2 2 2 2 3 3 5 6 6 5 0 0 0 0 0 0 0 0 0 0 0 0
Wind_Speed_500mb
107 102 97 107 111 113 110 103 100 99 99 95 89 84 82 83 81 69 65 61 61 51 55 51 41 40 39 27 31 35 39 37 33
102 106 105 108 112 113 115 110 105 104 102 97 92 87 83 82 85 84 77 66 63 56 53 50 45 42 42 40 34 33 39 43 40
84 95 110 111 113 111 113 110 106 103 101 98 90 87 84 83 85 88 85 75 65 64 54 58 51 45 51 49 42 40 38 47 49
71 86 104 109 112 113 112 107 106 103 102 100 95 89 85 83 83 85 86 84 72 71 65 58 64 60 45 56 54 48 42 47 52
64 90 99 106 116 114 110 108 105 102 102 104 99 89 83 82 80 80 85 86 80 72 77 74 63 67 68 51 55 53 46 43 52
51 85 88 101 108 106 103 109 108 102 101 101 98 94 88 83 81 83 82 82 82 80 80 79 77 67 64 71 63 59 56 51 49
70 62 87 94 98 99 102 106 106 103 98 97 94 93 90 87 84 82 84 83 82 84 85 84 82 81 82 77 75 73 67 64 59
45 54 81 90 95 97 103 105 104 99 97 96 92 89 88 89 86 82 79 83 86 85 87 91 90 89 89 90 91 88 85 81 76
50 39 65 68 77 92 106 111 105 99 99 96 93 92 88 82 80 82 82 84 84 85 88 89 91 94 95 97 98 98 94 87 84
45 44 46 39 35 43 85 96 104 99 98 97 95 95 94 90 86 83 80 77 82 87 88 86 88 90 91 96 98 98 97 94 90
38 42 38 36 29 22 20 20 75 100 99 100 92 93 97 95 95 92 86 83 86 84 85 89 91 92 93 92 93 93 95 95 95
62 51 42 31 27 23 21 22 29 48 72 99 97 92 93 95 95 96 94 93 92 89 88 89 92 94 97 100 100 97 92 90 95
51 47 41 28 15 13 8 13 8 31 63 68 85 98 91 83 82 88 91 92 93 93 93 93 90 93 96 98 101 99 97 92 91
48 37 32 19 7 8 24 14 10 4 27 53 64 65 69 79 82 84 85 87 89 92 95 95 95 94 93 94 95 92 92 88 90
54 45 28 20 12 12 16 23 28 19 19 19 35 58 69 59 62 68 78 82 87 89 90 92 92 91 91 91 90 86 83 82 85
42 44 37 25 28 22 14 18 22 26 29 34 36 39 43 49 59 61 66 71 75 84 85 85 86 87 89 87 82 79 76 72 71
41 43 42 33 36 34 37 24 9 21 33 34 39 42 47 52 56 55 59 60 60 64 75 82 81 79 78 72 71 67 62 59 61
35 40 37 37 40 41 33 31 19 17 27 36 42 39 47 53 60 59 58 57 60 63 63 67 71 71 71 66 61 51 53 54 54
34 35 39 36 36 39 34 38 39 39 34 29 30 28 36 43 49 53 54 55 56 57 48 49 54 55 49 56 50 58 52 48 51
45 42 37 44 46 45 35 34 37 39 39 27 31 32 31 39 45 44 47 48 50 50 54 49 52 51 53 50 46 42 43 46 50
Wind_Direction_500mb
182 187 189 189 190 192 193 199 205 211 215 217 218 221 222 219 221 221 222 220 216 220 226 233 234 235 235 237 224 221 221 217 232
179 190 189 188 189 192 197 197 205 211 217 219 220 222 222 219 219 224 225 222 218 217 225 232 236 236 236 236 230 224 226 227 225
187 181 182 183 187 191 198 200 205 210 219 222 223 223 224 223 221 221 227 228 221 218 219 223 228 239 240 238 240 236 235 232 231
194 177 177 180 185 192 200 201 203 209 216 223 224 225 225 227 227 224 225 231 227 222 220 221 221 230 236 238 238 238 243 237 232
192 181 177 178 184 192 196 197 202 208 215 220 226 228 228 228 231 230 227 228 231 226 225 224 223 226 235 238 238 240 246 248 238
181 175 175 175 180 187 191 197 201 208 213 219 226 228 229 230 229 231 232 229 229 231 228 229 226 225 233 237 240 241 246 250 246
198 166 170 175 179 184 192 198 200 207 213 218 223 226 229 231 232 231 233 234 232 231 233 232 232 230 234 239 243 246 247 250 251
179 173 175 173 182 185 191 197 203 210 214 215 218 226 230 233 234 235 235 236 237 237 236 238 238 239 238 240 242 245 247 249 251
93 114 175 176 187 186 190 199 205 209 212 214 216 221 228 231 235 235 236 238 237 240 242 241 243 243 243 244 245 248 251 251 251
92 87 89 107 120 174 196 198 205 208 214 216 217 222 225 228 232 234 236 239 239 241 242 245 244 245 246 247 248 249 251 253 253
103 88 82 77 86 105 139 170 210 212 213 214 218 223 226 227 231 235 236 238 239 241 242 244 247 248 248 249 250 249 249 251 253
71 73 73 75 70 71 79 175 201 214 216 219 217 221 229 231 233 236 238 239 241 243 243 245 247 250 252 253 254 253 252 249 249
61 65 62 68 65 39 70 78 110 213 214 213 218 221 227 229 234 237 240 245 245 244 246 249 251 253 255 258 260 260 257 254 251
42 41 56 68 91 16 0 311 340 133 201 212 222 227 230 231 235 239 243 246 247 247 246 247 250 253 256 259 261 260 258 258 255
36 32 37 41 28 322 321 326 302 293 269 222 225 235 238 235 237 239 242 246 249 247 247 245 248 251 255 258 260 261 262 261 259
25 23 23 25 17 357 341 320 290 277 276 271 274 246 237 238 243 245 245 243 244 244 245 245 246 246 249 254 260 262 262 262 262
14 13 11 22 22 28 7 349 299 252 252 268 273 263 249 245 249 249 246 243 244 242 243 243 242 245 253 257 259 262 265 267 266
353 1 4 13 11 5 350 319 306 283 272 274 274 272 257 251 244 244 242 237 235 238 243 247 248 252 254 256 257 260 258 258 265
337 347 356 355 349 351 351 302 303 292 284 268 258 261 258 247 242 236 232 234 233 230 233 239 243 244 246 245 247 251 252 258 259
336 341 340 335 326 318 322 298 296 306 306 279 255 250 247 244 238 236 231 228 230 226 220 227 228 233 239 242 240 242 244 253 261
Wind_Speed_850mb
107 102 97 107 111 113 110 103 100 99 99 95 89 84 82 83 81 69 65 61 61 51 55 51 41 40 39 27 31 35 39 37 33
102 106 105 108 112 113 115 110 105 104 102 97 92 87 83 82 85 84 77 66 63 56 53 50 45 42 42 40 34 33 39 43 40
84 95 110 111 113 111 113 110 106 103 101 98 90 87 84 83 85 88 85 75 65 64 54 58 51 45 51 49 42 40 38 47 49
71 86 104 109 112 113 112 107 106 103 102 100 95 89 85 83 83 85 86 84 72 71 65 58 64 60 45 56 54 48 42 47 52
64 90 99 106 116 114 110 108 105 102 102 104 99 89 83 82 80 80 85 86 80 72 77 74 63 67 68 51 55 53 46 43 52
51 85 88 101 108 106 103 109 108 102 101 101 98 94 88 83 81 83 82 82 82 80 80 79 77 67 64 71 63 59 56 51 49
70 62 87 94 98 99 102 106 106 103 98 97 94 93 90 87 84 82 84 83 82 84 85 84 82 81 82 77 75 73 67 64 59
45 54 81 90 95 97 103 105 104 99 97 96 92 89 88 89 86 82 79 83 86 85 87 91 90 89 89 90 91 88 85 81 76
50 39 65 68 77 92 106 111 105 99 99 96 93 92 88 82 80 82 82 84 84 85 88 89 91 94 95 97 98 98 94 87 84
45 44 46 39 35 43 85 96 104 99 98 97 95 95 94 90 86 83 80 77 82 87 88 86 88 90 91 96 98 98 97 94 90
38 42 38 36 29 22 20 20 75 100 99 100 92 93 97 95 95 92 86 83 86 84 85 89 91 92 93 92 93 93 95 95 95
62 51 42 31 27 23 21 22 29 48 72 99 97 92 93 95 95 96 94 93 92 89 88 89 92 94 97 100 100 97 92 90 95
51 47 41 28 15 13 8 13 8 31 63 68 85 98 91 83 82 88 91 92 93 93 93 93 90 93 96 98 101 99 97 92 91
48 37 32 19 7 8 24 14 10 4 27 53 64 65 69 79 82 84 85 87 89 92 95 95 95 94 93 94 95 92 92 88 90
54 45 28 20 12 12 16 23 28 19 19 19 35 58 69 59 62 68 78 82 87 89 90 92 92 91 91 91 90 86 83 82 85
42 44 37 25 28 22 14 18 22 26 29 34 36 39 43 49 59 61 66 71 75 84 85 85 86 87 89 87 82 79 76 72 71
41 43 42 33 36 34 37 24 9 21 33 34 39 42 47 52 56 55 59 60 60 64 75 82 81 79 78 72 71 67 62 59 61
35 40 37 37 40 41 33 31 19 17 27 36 42 39 47 53 60 59 58 57 60 63 63 67 71 71 71 66 61 51 53 54 54
34 35 39 36 36 39 34 38 39 39 34 29 30 28 36 43 49 53 54 55 56 57 48 49 54 55 49 56 50 58 52 48 51
45 42 37 44 46 45 35 34 37 39 39 27 31 32 31 39 45 44 47 48 50 50 54 49 52 51 53 50 46 42 43 46 50
Wind_Direction_850mb
182 187 189 189 190 192 193 199 205 211 215 217 218 221 222 219 221 221 222 220 216 220 226 233 234 235 235 237 224 221 221 217 232
179 190 189 188 189 192 197 197 205 211 217 219 220 222 222 219 219 224 225 222 218 217 225 232 236 236 236 236 230 224 226 227 225
187 181 182 183 187 191 198 200 205 210 219 222 223 223 224 223 221 221 227 228 221 218 219 223 228 239 240 238 240 236 235 232 231
194 177 177 180 185 192 200 201 203 209 216 223 224 225 225 227 227 224 225 231 227 222 220 221 221 230 236 238 238 238 243 237 232
192 181 177 178 184 192 196 197 202 208 215 220 226 228 228 228 231 230 227 228 231 226 225 224 223 226 235 238 238 240 246 248 238
181 175 175 175 180 187 191 197 201 208 213 219 226 228 229 230 229 231 232 229 229 231 228 229 226 225 233 237 240 241 246 250 246
198 166 170 175 179 184 192 198 200 207 213 218 223 226 229 231 232 231 233 234 232 231 233 232 232 230 234 239 243 246 247 250 251
179 173 175 173 182 185 191 197 203 210 214 215 218 226 230 233 234 235 235 236 237 237 236 238 238 239 238 240 242 245 247 249 251
93 114 175 176 187 186 190 199 205 209 212 214 216 221 228 231 235 235 236 238 237 240 242 241 243 243 243 244 245 248 251 251 251
92 87 89 107 120 174 196 198 205 208 214 216 217 222 225 228 232 234 236 239 239 241 242 245 244 245 246 247 248 249 251 253 253
103 88 82 77 86 105 139 170 210 212 213 214 218 223 226 227 231 235 236 238 239 241 242 244 247 248 248 249 250 249 249 251 253
71 73 73 75 70 71 79 175 201 214 216 219 217 221 229 231 233 236 238 239 241 243 243 245 247 250 252 253 254 253 252 249 249
61 65 62 68 65 39 70 78 110 213 214 213 218 221 227 229 234 237 240 245 245 244 246 249 251 253 255 258 260 260 257 254 251
42 41 56 68 91 16 0 311 340 133 201 212 222 227 230 231 235 239 243 246 247 247 246 247 250 253 256 259 261 260 258 258 255
36 32 37 41 28 322 321 326 302 293 269 222 225 235 238 235 237 239 242 246 249 247 247 245 248 251 255 258 260 261 262 261 259
25 23 23 25 17 357 341 320 290 277 276 271 274 246 237 238 243 245 245 243 244 244 245 245 246 246 249 254 260 262 262 262 262
14 13 11 22 22 28 7 349 299 252 252 268 273 263 249 245 249 249 246 243 244 242 243 243 242 245 253 257 259 262 265 267 266
353 1 4 13 11 5 350 319 306 283 272 274 274 272 257 251 244 244 242 237 235 238 243 247 248 252 254 256 257 260 258 258 265
337 347 356 355 349 351 351 302 303 292 284 268 258 261 258 247 242 236 232 234 233 230 233 239 243 244 246 245 247 251 252 258 259
336 341 340 335 326 318 322 298 296 306 306 279 255 250 247 244 238 236 231 228 230 226 220 227 228 233 239 242 240 242 244 253 261